| time (UTC) | temp F | wind direction | speed MPH | gust MPH | rain 1hr in | rain 24hr in | rain mn in | humidity % | barometer mb |
| 20260831093438 | 66 | 247 | 8.0 | 17.0 | 0.01 | 0.01 | 0.01 | 76 | 1008.2 |
| 20260831092939 | 67 | 243 | 9.0 | 17.0 | 0.01 | 0.01 | 0.01 | 67 | 1008.1 |
| 20260831092643 | 68 | 242 | 8.0 | 17.0 | 0.00 | 0.00 | 0.00 | 67 | 1008.2 |
| 20260831092437 | 68 | 234 | 8.0 | 20.0 | 0.00 | 0.00 | 0.00 | 67 | 1008.1 |
| 20260831091938 | 68 | 240 | 9.0 | 20.0 | 0.00 | 0.00 | 0.00 | 67 | 1007.9 |
| 20260831091644 | 69 | 225 | 10.0 | 18.0 | 0.00 | 0.00 | 0.00 | 68 | 1008.1 |
| 20260831091437 | 69 | 248 | 9.0 | 18.0 | 0.00 | 0.00 | 0.00 | 68 | 1008.0 |
| 20260831090938 | 69 | 246 | 8.0 | 18.0 | 0.00 | 0.00 | 0.00 | 68 | 1008.0 |
| 20260831090643 | 69 | 234 | 8.0 | 19.0 | 0.00 | 0.00 | 0.00 | 68 | 1008.1 |
| 20260831090437 | 69 | 244 | 8.0 | 18.0 | 0.00 | 0.00 | 0.00 | 68 | 1008.0 |
| 20260831085938 | 69 | 236 | 7.0 | 17.0 | 0.00 | 0.00 | 0.00 | 68 | 1007.9 |
| 20260831085643 | 69 | 248 | 7.0 | 17.0 | 0.00 | 0.00 | 0.00 | 68 | 1008.1 |
| 20260831085437 | 69 | 238 | 8.0 | 19.0 | 0.00 | 0.00 | 0.00 | 68 | 1008.0 |
| 20260831084938 | 68 | 245 | 8.0 | 21.0 | 0.00 | 0.00 | 0.00 | 70 | 1008.0 |
| 20260831084644 | 67 | 253 | 11.0 | 21.0 | 0.00 | 0.00 | 0.00 | 71 | 1008.0 |
| 20260831084438 | 67 | 242 | 7.0 | 21.0 | 0.00 | 0.00 | 0.00 | 71 | 1008.0 |
| 20260831083646 | 66 | 258 | 6.0 | 12.0 | 0.00 | 0.00 | 0.00 | 72 | 1008.0 |
| 20260831083438 | 66 | 229 | 6.0 | 13.0 | 0.00 | 0.00 | 0.00 | 72 | 1008.0 |
| 20260831082938 | 66 | 229 | 5.0 | 13.0 | 0.00 | 0.00 | 0.00 | 72 | 1008.0 |
| 20260831082646 | 66 | 257 | 5.0 | 12.0 | 0.00 | 0.00 | 0.00 | 73 | 1008.0 |
| 20260831082438 | 66 | 228 | 5.0 | 12.0 | 0.00 | 0.00 | 0.00 | 73 | 1008.1 |
| 20260831081646 | 66 | 181 | 4.0 | 10.0 | 0.00 | 0.00 | 0.00 | 73 | 1008.1 |
| 20260831081438 | 66 | 236 | 5.0 | 10.0 | 0.00 | 0.00 | 0.00 | 73 | 1008.1 |
| 20260831080937 | 66 | 231 | 5.0 | 10.0 | 0.00 | 0.00 | 0.00 | 73 | 1008.1 |
| 20260831080647 | 66 | 209 | 4.0 | 10.0 | 0.00 | 0.00 | 0.00 | 73 | 1008.1 |
| 20260831080438 | 66 | 228 | 6.0 | 15.0 | 0.00 | 0.00 | 0.00 | 73 | 1008.1 |
| 20260831075938 | 66 | 232 | 7.0 | 15.0 | 0.00 | 0.00 | 0.00 | 73 | 1008.1 |
| 20260831075646 | 66 | 149 | 7.0 | 15.0 | 0.00 | 0.00 | 0.00 | 74 | 1008.1 |
| 20260831075437 | 66 | 238 | 6.0 | 15.0 | 0.00 | 0.00 | 0.00 | 74 | 1008.1 |
| 20260831074938 | 66 | 241 | 6.0 | 14.0 | 0.00 | 0.00 | 0.00 | 73 | 1008.2 |
| 20260831074646 | 66 | 269 | 6.0 | 13.0 | 0.00 | 0.00 | 0.00 | 73 | 1008.1 |
| 20260831073938 | 66 | 234 | 6.0 | 15.0 | 0.00 | 0.00 | 0.00 | 74 | 1008.1 |
| 20260831073646 | 66 | 220 | 6.0 | 14.0 | 0.00 | 0.00 | 0.00 | 75 | 1008.2 |
| 20260831073438 | 66 | 235 | 5.0 | 14.0 | 0.00 | 0.00 | 0.00 | 75 | 1008.2 |
| 20260831072938 | 66 | 236 | 6.0 | 17.0 | 0.00 | 0.00 | 0.00 | 75 | 1008.3 |
| 20260831072646 | 66 | 230 | 7.0 | 17.0 | 0.00 | 0.00 | 0.00 | 75 | 1008.2 |
| 20260831071938 | 66 | 235 | 6.0 | 15.0 | 0.00 | 0.00 | 0.00 | 76 | 1008.3 |
| 20260831071438 | 66 | 230 | 6.0 | 16.0 | 0.00 | 0.00 | 0.00 | 76 | 1008.3 |
| 20260831070938 | 66 | 236 | 6.0 | 16.0 | 0.00 | 0.00 | 0.00 | 76 | 1008.3 |
| 20260831070646 | 65 | 246 | 5.0 | 13.0 | 0.00 | 0.00 | 0.00 | 77 | 1008.2 |
| 20260831070437 | 65 | 234 | 5.0 | 15.0 | 0.00 | 0.00 | 0.00 | 77 | 1008.3 |
| 20260831065938 | 65 | 231 | 5.0 | 15.0 | 0.00 | 0.00 | 0.00 | 77 | 1008.2 |
| 20260831065646 | 65 | 230 | 5.0 | 10.0 | 0.00 | 0.00 | 0.00 | 78 | 1008.4 |
| 20260831065438 | 65 | 235 | 5.0 | 10.0 | 0.00 | 0.00 | 0.00 | 78 | 1008.3 |
| 20260831064938 | 65 | 238 | 5.0 | 16.0 | 0.00 | 0.00 | 0.00 | 78 | 1008.3 |
| 20260831064646 | 65 | 263 | 6.0 | 16.0 | 0.00 | 0.00 | 0.00 | 78 | 1008.2 |
| 20260831064437 | 65 | 236 | 6.0 | 16.0 | 0.00 | 0.00 | 0.00 | 78 | 1008.2 |
| 20260831063938 | 64 | 233 | 6.0 | 17.0 | 0.00 | 0.00 | 0.00 | 79 | 1008.2 |
| 20260831063646 | 64 | 220 | 6.0 | 13.0 | 0.00 | 0.00 | 0.00 | 79 | 1008.2 |
| 20260831062937 | 64 | 234 | 5.0 | 13.0 | 0.00 | 0.00 | 0.00 | 80 | 1008.0 |
| 20260831062646 | 64 | 273 | 4.0 | 10.0 | 0.00 | 0.00 | 0.00 | 80 | 1008.2 |
| 20260831062438 | 64 | 233 | 4.0 | 11.0 | 0.00 | 0.00 | 0.00 | 80 | 1008.1 |
| 20260831061937 | 64 | 229 | 5.0 | 12.0 | 0.00 | 0.00 | 0.00 | 80 | 1008.1 |
| 20260831061646 | 64 | 232 | 5.0 | 12.0 | 0.00 | 0.00 | 0.00 | 80 | 1008.2 |
| 20260831060646 | 63 | 227 | 4.0 | 12.0 | 0.00 | 0.00 | 0.00 | 81 | 1008.2 |
| 20260831060438 | 63 | 226 | 4.0 | 12.0 | 0.00 | 0.00 | 0.00 | 81 | 1008.1 |
| 20260831055937 | 63 | 220 | 4.0 | 13.0 | 0.00 | 0.00 | 0.00 | 81 | 1008.1 |
| 20260831055646 | 63 | 260 | 5.0 | 13.0 | 0.00 | 0.00 | 0.00 | 81 | 1008.1 |
| 20260831055438 | 63 | 217 | 4.0 | 13.0 | 0.00 | 0.00 | 0.00 | 81 | 1008.1 |
| 20260831054438 | 63 | 223 | 4.0 | 9.0 | 0.00 | 0.00 | 0.00 | 81 | 1007.9 |
| 20260831053938 | 63 | 226 | 3.0 | 11.0 | 0.00 | 0.00 | 0.00 | 81 | 1007.9 |
| 20260831053646 | 63 | 234 | 3.0 | 11.0 | 0.00 | 0.00 | 0.00 | 81 | 1008.0 |
| 20260831053437 | 63 | 232 | 3.0 | 11.0 | 0.00 | 0.00 | 0.00 | 81 | 1007.9 |
| 20260831052646 | 62 | 197 | 3.0 | 7.0 | 0.00 | 0.00 | 0.00 | 81 | 1008.0 |
| 20260831051938 | 62 | 225 | 3.0 | 9.0 | 0.00 | 0.00 | 0.00 | 81 | 1007.9 |
| 20260831051437 | 62 | 227 | 4.0 | 9.0 | 0.00 | 0.00 | 0.00 | 81 | 1007.9 |
| 20260831050938 | 62 | 227 | 4.0 | 10.0 | 0.00 | 0.00 | 0.00 | 81 | 1007.8 |
| 20260831050646 | 62 | 210 | 4.0 | 10.0 | 0.00 | 0.00 | 0.00 | 81 | 1007.8 |
| 20260831050438 | 62 | 217 | 3.0 | 10.0 | 0.00 | 0.00 | 0.00 | 81 | 1007.8 |
| 20260831045938 | 62 | 220 | 3.0 | 9.0 | 0.00 | 0.00 | 0.00 | 81 | 1007.7 |
| 20260831045646 | 62 | 211 | 3.0 | 6.0 | 0.00 | 0.00 | 0.00 | 81 | 1007.8 |
| 20260831045439 | 62 | 223 | 3.0 | 7.0 | 0.00 | 0.00 | 0.00 | 81 | 1007.7 |
| 20260831044646 | 62 | 209 | 4.0 | 9.0 | 0.00 | 0.00 | 0.00 | 82 | 1007.8 |
| 20260831044438 | 62 | 211 | 4.0 | 10.0 | 0.00 | 0.00 | 0.00 | 82 | 1007.7 |
| 20260831043938 | 62 | 215 | 3.0 | 10.0 | 0.00 | 0.00 | 0.00 | 82 | 1007.7 |
| 20260831043646 | 62 | 194 | 3.0 | 6.0 | 0.00 | 0.00 | 0.00 | 82 | 1007.7 |
| 20260831043438 | 62 | 231 | 2.0 | 7.0 | 0.00 | 0.00 | 0.00 | 82 | 1007.6 |
| 20260831042937 | 62 | 237 | 3.0 | 8.0 | 0.00 | 0.00 | 0.00 | 82 | 1007.7 |
| 20260831042646 | 62 | 251 | 3.0 | 8.0 | 0.00 | 0.00 | 0.00 | 82 | 1007.7 |
| 20260831042438 | 62 | 229 | 3.0 | 10.0 | 0.00 | 0.00 | 0.00 | 82 | 1007.6 |
| 20260831041646 | 62 | 249 | 4.0 | 13.0 | 0.00 | 0.00 | 0.00 | 83 | 1007.7 |
| 20260831041438 | 62 | 232 | 4.0 | 13.0 | 0.00 | 0.00 | 0.00 | 83 | 1007.7 |
| 20260831040646 | 62 | 246 | 3.0 | 9.0 | 0.00 | 0.00 | 0.00 | 84 | 1007.8 |
| 20260831035646 | 61 | 258 | 4.0 | 8.0 | 0.00 | 0.00 | 0.00 | 84 | 1007.7 |
| 20260831034938 | 61 | 202 | 2.0 | 5.0 | 0.00 | 0.00 | 0.00 | 84 | 1007.7 |
| 20260831034646 | 61 | 202 | 1.0 | 5.0 | 0.00 | 0.00 | 0.00 | 84 | 1007.7 |
| 20260831033937 | 62 | 202 | 2.0 | 3.0 | 0.00 | 0.00 | 0.00 | 83 | 1007.7 |
| 20260831033437 | 62 | 201 | 2.0 | 4.0 | 0.00 | 0.00 | 0.00 | 82 | 1007.6 |
| 20260831032938 | 62 | 201 | 2.0 | 4.0 | 0.00 | 0.00 | 0.00 | 82 | 1007.5 |
| 20260831032646 | 62 | 201 | 2.0 | 4.0 | 0.00 | 0.00 | 0.00 | 82 | 1007.7 |
| 20260831032437 | 62 | 204 | 1.0 | 5.0 | 0.00 | 0.00 | 0.00 | 82 | 1007.6 |
| 20260831031937 | 62 | 215 | 1.0 | 5.0 | 0.00 | 0.00 | 0.00 | 82 | 1007.6 |
| 20260831031646 | 62 | 223 | 1.0 | 4.0 | 0.00 | 0.00 | 0.00 | 82 | 1007.7 |
| 20260831031438 | 62 | 229 | 2.0 | 4.0 | 0.00 | 0.00 | 0.00 | 82 | 1007.6 |
| 20260831030646 | 62 | 235 | 2.0 | 5.0 | 0.00 | 0.00 | 0.00 | 82 | 1007.8 |
| 20260831030438 | 62 | 235 | 2.0 | 8.0 | 0.00 | 0.00 | 0.00 | 82 | 1007.7 |
| 20260831025937 | 62 | 228 | 2.0 | 8.0 | 0.00 | 0.00 | 0.00 | 82 | 1007.8 |
| 20260831025646 | 62 | 236 | 2.0 | 6.0 | 0.00 | 0.00 | 0.00 | 83 | 1007.8 |
| 20260831025438 | 62 | 226 | 3.0 | 6.0 | 0.00 | 0.00 | 0.00 | 83 | 1007.7 |
| 20260831024937 | 61 | 232 | 3.0 | 8.0 | 0.00 | 0.00 | 0.00 | 83 | 1007.6 |
| 20260831024646 | 61 | 262 | 2.0 | 8.0 | 0.00 | 0.00 | 0.00 | 83 | 1007.8 |
| 20260831024437 | 61 | 230 | 2.0 | 5.0 | 0.00 | 0.00 | 0.00 | 83 | 1007.7 |
| 20260831023938 | 61 | 228 | 2.0 | 5.0 | 0.00 | 0.00 | 0.00 | 83 | 1007.7 |
| 20260831022938 | 61 | 228 | 1.0 | 3.0 | 0.00 | 0.00 | 0.00 | 83 | 1007.6 |
| 20260831022646 | 62 | 228 | 1.0 | 3.0 | 0.00 | 0.00 | 0.00 | 83 | 1007.7 |
| 20260831022438 | 62 | 228 | 1.0 | 3.0 | 0.00 | 0.00 | 0.00 | 83 | 1007.6 |
| 20260831021938 | 62 | 228 | 2.0 | 4.0 | 0.00 | 0.00 | 0.00 | 83 | 1007.5 |
| 20260831021646 | 62 | 228 | 2.0 | 4.0 | 0.00 | 0.00 | 0.00 | 83 | 1007.5 |
| 20260831021437 | 62 | 234 | 2.0 | 4.0 | 0.00 | 0.00 | 0.00 | 83 | 1007.4 |
| 20260831020938 | 62 | 241 | 2.0 | 4.0 | 0.00 | 0.00 | 0.00 | 83 | 1007.4 |
| 20260831020438 | 62 | 244 | 1.0 | 4.0 | 0.00 | 0.00 | 0.00 | 83 | 1007.3 |
| 20260831015646 | 62 | 254 | 1.0 | 4.0 | 0.00 | 0.00 | 0.00 | 84 | 1007.5 |
| 20260831015438 | 62 | 259 | 1.0 | 4.0 | 0.00 | 0.00 | 0.00 | 84 | 1007.4 |
| 20260831014938 | 62 | 264 | 1.0 | 4.0 | 0.00 | 0.00 | 0.00 | 84 | 1007.4 |
| 20260831014646 | 62 | 264 | 2.0 | 4.0 | 0.00 | 0.00 | 0.00 | 84 | 1007.6 |
| 20260831014438 | 62 | 275 | 2.0 | 4.0 | 0.00 | 0.00 | 0.00 | 84 | 1007.5 |
| 20260831013938 | 62 | 287 | 1.0 | 4.0 | 0.00 | 0.00 | 0.00 | 84 | 1007.5 |
| 20260831013646 | 62 | 291 | 1.0 | 2.0 | 0.00 | 0.00 | 0.00 | 84 | 1007.5 |
| 20260831013439 | 62 | 0 | 0.0 | 2.0 | 0.00 | 0.00 | 0.00 | 84 | 1007.4 |
| 20260831012938 | 62 | 0 | 0.0 | 2.0 | 0.00 | 0.00 | 0.00 | 83 | 1007.4 |
| 20260831012646 | 62 | 291 | 0.0 | 2.0 | 0.00 | 0.00 | 0.00 | 83 | 1007.5 |
| 20260831012438 | 62 | 290 | 1.0 | 2.0 | 0.00 | 0.00 | 0.00 | 83 | 1007.4 |
| 20260831011938 | 63 | 296 | 1.0 | 3.0 | 0.00 | 0.00 | 0.00 | 83 | 1007.5 |
| 20260831011646 | 63 | 291 | 1.0 | 3.0 | 0.00 | 0.00 | 0.00 | 83 | 1007.6 |
| 20260831010938 | 63 | 0 | 0.0 | 2.0 | 0.00 | 0.00 | 0.00 | 83 | 1007.5 |
| 20260831010646 | 63 | 304 | 0.0 | 0.0 | 0.00 | 0.00 | 0.00 | 83 | 1007.6 |
| 20260831010438 | 63 | 0 | 0.0 | 0.0 | 0.00 | 0.00 | 0.00 | 83 | 1007.5 |
| 20260831005938 | 63 | 0 | 0.0 | 0.0 | 0.00 | 0.00 | 0.00 | 83 | 1007.7 |
| 20260831005646 | 63 | 304 | 0.0 | 0.0 | 0.00 | 0.00 | 0.00 | 82 | 1007.8 |
| 20260831005438 | 63 | 0 | 0.0 | 0.0 | 0.00 | 0.00 | 0.00 | 82 | 1007.8 |
| 20260831004938 | 63 | 0 | 0.0 | 0.0 | 0.00 | 0.00 | 0.00 | 83 | 1007.7 |
| 20260831004646 | 63 | 304 | 0.0 | 0.0 | 0.00 | 0.00 | 0.00 | 83 | 1007.9 |
| 20260831004438 | 63 | 308 | 2.0 | 8.0 | 0.00 | 0.00 | 0.00 | 83 | 1007.9 |
| 20260831003939 | 63 | 297 | 2.0 | 8.0 | 0.00 | 0.00 | 0.00 | 83 | 1007.9 |
| 20260831003646 | 63 | 255 | 1.0 | 4.0 | 0.00 | 0.00 | 0.00 | 84 | 1008.1 |
| 20260831003438 | 63 | 0 | 0.0 | 4.0 | 0.00 | 0.00 | 0.00 | 84 | 1008.1 |
| 20260831002938 | 63 | 0 | 0.0 | 0.0 | 0.00 | 0.00 | 0.00 | 83 | 1007.9 |
| 20260831001938 | 63 | 0 | 0.0 | 3.0 | 0.00 | 0.00 | 0.00 | 83 | 1007.9 |
| 20260831001646 | 63 | 209 | 0.0 | 3.0 | 0.00 | 0.00 | 0.00 | 83 | 1007.9 |
| 20260831001439 | 63 | 209 | 1.0 | 3.0 | 0.00 | 0.00 | 0.00 | 83 | 1007.9 |
| 20260831000937 | 63 | 209 | 1.0 | 4.0 | 0.00 | 0.00 | 0.00 | 83 | 1008.0 |
| 20260831000646 | 63 | 209 | 1.0 | 4.0 | 0.00 | 0.00 | 0.00 | 84 | 1008.0 |
| 20260831000439 | 63 | 200 | 2.0 | 5.0 | 0.00 | 0.00 | 0.00 | 84 | 1007.9 |
| 20260830235646 | 62 | 184 | 2.0 | 5.0 | 0.00 | 0.00 | 0.00 | 84 | 1008.2 |
| 20260830235438 | 62 | 184 | 2.0 | 5.0 | 0.00 | 0.00 | 0.00 | 84 | 1008.1 |
| 20260830234938 | 62 | 184 | 2.0 | 5.0 | 0.00 | 0.00 | 0.00 | 85 | 1008.2 |
| 20260830234438 | 62 | 185 | 2.0 | 5.0 | 0.00 | 0.00 | 0.00 | 85 | 1008.2 |
| 20260830233646 | 62 | 184 | 0.0 | 3.0 | 0.00 | 0.00 | 0.00 | 85 | 1008.1 |
| 20260830233438 | 62 | 0 | 0.0 | 3.0 | 0.00 | 0.00 | 0.00 | 85 | 1008.2 |
| 20260830232938 | 62 | 0 | 0.0 | 0.0 | 0.00 | 0.00 | 0.00 | 85 | 1008.2 |
| 20260830232646 | 62 | 184 | 0.0 | 0.0 | 0.00 | 0.00 | 0.00 | 84 | 1008.2 |
| 20260830232437 | 62 | 0 | 0.0 | 0.0 | 0.00 | 0.00 | 0.00 | 84 | 1008.2 |
| 20260830231938 | 62 | 0 | 0.0 | 0.0 | 0.00 | 0.00 | 0.00 | 83 | 1008.1 |
| 20260830231646 | 62 | 184 | 0.0 | 0.0 | 0.00 | 0.00 | 0.00 | 83 | 1008.0 |
| 20260830231437 | 62 | 0 | 0.0 | 0.0 | 0.00 | 0.00 | 0.00 | 83 | 1008.0 |
| 20260830230646 | 63 | 184 | 0.0 | 0.0 | 0.00 | 0.00 | 0.00 | 82 | 1008.0 |
| 20260830225938 | 63 | 0 | 0.0 | 0.0 | 0.00 | 0.00 | 0.00 | 82 | 1008.1 |
| 20260830225646 | 63 | 184 | 0.0 | 0.0 | 0.00 | 0.00 | 0.00 | 82 | 1008.2 |
| 20260830225438 | 63 | 0 | 0.0 | 0.0 | 0.00 | 0.00 | 0.00 | 82 | 1008.2 |
| 20260830224646 | 64 | 184 | 0.0 | 0.0 | 0.00 | 0.00 | 0.00 | 81 | 1008.4 |
| 20260830224438 | 64 | 0 | 0.0 | 0.0 | 0.00 | 0.00 | 0.00 | 81 | 1008.4 |
| 20260830223938 | 64 | 0 | 0.0 | 0.0 | 0.00 | 0.00 | 0.00 | 81 | 1008.3 |
| 20260830223646 | 64 | 184 | 0.0 | 0.0 | 0.00 | 0.00 | 0.00 | 81 | 1008.4 |
| 20260830223438 | 64 | 0 | 0.0 | 0.0 | 0.00 | 0.00 | 0.00 | 81 | 1008.3 |
| 20260830222938 | 64 | 0 | 0.0 | 0.0 | 0.00 | 0.00 | 0.00 | 81 | 1008.4 |
| 20260830222646 | 64 | 184 | 0.0 | 0.0 | 0.00 | 0.00 | 0.00 | 80 | 1008.5 |
| 20260830222438 | 64 | 0 | 0.0 | 0.0 | 0.00 | 0.00 | 0.00 | 80 | 1008.4 |
| 20260830221438 | 64 | 0 | 0.0 | 1.0 | 0.00 | 0.00 | 0.00 | 80 | 1008.4 |
| 20260830220438 | 64 | 0 | 0.0 | 3.0 | 0.00 | 0.00 | 0.00 | 80 | 1008.5 |
| 20260830215940 | 65 | 0 | 0.0 | 3.0 | 0.00 | 0.00 | 0.00 | 80 | 1008.5 |
| 20260830215646 | 65 | 184 | 0.0 | 3.0 | 0.00 | 0.00 | 0.00 | 80 | 1008.6 |
| 20260830214937 | 65 | 0 | 0.0 | 3.0 | 0.00 | 0.00 | 0.00 | 79 | 1008.6 |
| 20260830214646 | 65 | 184 | 0.0 | 3.0 | 0.00 | 0.00 | 0.00 | 79 | 1008.7 |
| 20260830214438 | 65 | 0 | 0.0 | 3.0 | 0.00 | 0.00 | 0.00 | 79 | 1008.6 |
| 20260830213938 | 65 | 0 | 0.0 | 3.0 | 0.00 | 0.00 | 0.00 | 79 | 1008.6 |
| 20260830213438 | 65 | 184 | 1.0 | 3.0 | 0.00 | 0.00 | 0.00 | 78 | 1008.7 |
| 20260830212938 | 65 | 184 | 1.0 | 4.0 | 0.00 | 0.00 | 0.00 | 78 | 1008.7 |
| 20260830212646 | 65 | 184 | 1.0 | 4.0 | 0.00 | 0.00 | 0.00 | 78 | 1008.8 |
| 20260830212438 | 65 | 184 | 1.0 | 4.0 | 0.00 | 0.00 | 0.00 | 78 | 1008.8 |
| 20260830211938 | 65 | 184 | 1.0 | 5.0 | 0.00 | 0.00 | 0.00 | 78 | 1008.8 |
| 20260830211646 | 65 | 184 | 1.0 | 5.0 | 0.00 | 0.00 | 0.00 | 78 | 1009.0 |
| 20260830211438 | 65 | 184 | 1.0 | 5.0 | 0.00 | 0.00 | 0.00 | 78 | 1008.9 |
| 20260830210938 | 65 | 184 | 1.0 | 4.0 | 0.00 | 0.00 | 0.00 | 77 | 1008.9 |
| 20260830210646 | 66 | 184 | 1.0 | 4.0 | 0.00 | 0.00 | 0.00 | 77 | 1008.9 |
| 20260830210438 | 66 | 184 | 1.0 | 4.0 | 0.00 | 0.00 | 0.00 | 77 | 1008.9 |
| 20260830205938 | 66 | 184 | 1.0 | 5.0 | 0.00 | 0.00 | 0.00 | 77 | 1008.9 |
| 20260830204646 | 66 | 184 | 2.0 | 5.0 | 0.00 | 0.00 | 0.00 | 76 | 1009.2 |
| 20260830204438 | 66 | 182 | 3.0 | 6.0 | 0.00 | 0.00 | 0.00 | 76 | 1009.1 |
| 20260830203939 | 65 | 193 | 3.0 | 6.0 | 0.00 | 0.00 | 0.00 | 77 | 1009.1 |
| 20260830203646 | 65 | 176 | 3.0 | 6.0 | 0.00 | 0.00 | 0.00 | 77 | 1009.1 |
| 20260830202938 | 65 | 197 | 3.0 | 6.0 | 0.00 | 0.00 | 0.00 | 77 | 1009.2 |
| 20260830202646 | 64 | 203 | 2.0 | 6.0 | 0.00 | 0.00 | 0.00 | 78 | 1009.0 |
| 20260830202438 | 64 | 196 | 2.0 | 6.0 | 0.00 | 0.00 | 0.00 | 78 | 1009.1 |
| 20260830201938 | 64 | 0 | 0.0 | 3.0 | 0.00 | 0.00 | 0.00 | 78 | 1009.2 |
| 20260830201647 | 64 | 211 | 0.0 | 2.0 | 0.00 | 0.00 | 0.00 | 79 | 1009.2 |
| 20260830201438 | 64 | 0 | 0.0 | 2.0 | 0.00 | 0.00 | 0.00 | 79 | 1009.2 |
| 20260830200938 | 64 | 0 | 0.0 | 2.0 | 0.00 | 0.00 | 0.00 | 79 | 1009.2 |
| 20260830200646 | 64 | 211 | 0.0 | 1.0 | 0.00 | 0.00 | 0.00 | 79 | 1009.2 |
| 20260830195938 | 64 | 0 | 0.0 | 0.0 | 0.00 | 0.00 | 0.00 | 79 | 1009.2 |
| 20260830195646 | 64 | 211 | 0.0 | 0.0 | 0.00 | 0.00 | 0.00 | 78 | 1009.2 |
| 20260830195437 | 64 | 0 | 0.0 | 0.0 | 0.00 | 0.00 | 0.00 | 78 | 1009.2 |
| 20260830194939 | 65 | 0 | 0.0 | 0.0 | 0.00 | 0.00 | 0.00 | 78 | 1009.3 |
| 20260830194438 | 65 | 0 | 0.0 | 2.0 | 0.00 | 0.00 | 0.00 | 78 | 1009.3 |
| 20260830193938 | 65 | 0 | 0.0 | 2.0 | 0.00 | 0.00 | 0.00 | 78 | 1009.3 |
| 20260830193646 | 65 | 211 | 0.0 | 0.0 | 0.00 | 0.00 | 0.00 | 77 | 1009.2 |
| 20260830193438 | 65 | 0 | 0.0 | 2.0 | 0.00 | 0.00 | 0.00 | 77 | 1009.2 |
| 20260830192938 | 65 | 0 | 0.0 | 2.0 | 0.00 | 0.00 | 0.00 | 76 | 1009.4 |
| 20260830192646 | 65 | 211 | 0.0 | 2.0 | 0.00 | 0.00 | 0.00 | 76 | 1009.3 |
| 20260830192438 | 65 | 0 | 0.0 | 2.0 | 0.00 | 0.00 | 0.00 | 76 | 1009.3 |
| 20260830191938 | 66 | 0 | 0.0 | 1.0 | 0.00 | 0.00 | 0.00 | 75 | 1009.3 |
| 20260830191438 | 66 | 0 | 0.0 | 0.0 | 0.00 | 0.00 | 0.00 | 75 | 1009.4 |
| 20260830190938 | 66 | 0 | 0.0 | 0.0 | 0.00 | 0.00 | 0.00 | 74 | 1009.4 |
| 20260830190437 | 66 | 0 | 0.0 | 0.0 | 0.00 | 0.00 | 0.00 | 73 | 1009.3 |
| 20260830185938 | 67 | 0 | 0.0 | 0.0 | 0.00 | 0.00 | 0.00 | 73 | 1009.4 |
| 20260830185439 | 67 | 0 | 0.0 | 2.0 | 0.00 | 0.00 | 0.00 | 72 | 1009.4 |
| 20260830184646 | 67 | 211 | 0.0 | 2.0 | 0.00 | 0.01 | 0.00 | 71 | 1009.4 |
| 20260830184438 | 67 | 212 | 1.0 | 3.0 | 0.00 | 0.01 | 0.00 | 71 | 1009.4 |
| 20260830183938 | 67 | 212 | 1.0 | 3.0 | 0.00 | 0.01 | 0.00 | 71 | 1009.4 |
| 20260830183646 | 68 | 211 | 0.0 | 1.0 | 0.00 | 0.01 | 0.00 | 70 | 1009.5 |
| 20260830183439 | 68 | 0 | 0.0 | 2.0 | 0.00 | 0.01 | 0.00 | 70 | 1009.4 |
| 20260830182646 | 68 | 211 | 1.0 | 3.0 | 0.00 | 0.01 | 0.00 | 69 | 1009.4 |
| 20260830182438 | 68 | 212 | 1.0 | 3.0 | 0.00 | 0.01 | 0.00 | 69 | 1009.3 |
| 20260830181938 | 69 | 212 | 1.0 | 3.0 | 0.00 | 0.01 | 0.00 | 68 | 1009.4 |
| 20260830181646 | 69 | 211 | 1.0 | 3.0 | 0.00 | 0.01 | 0.00 | 67 | 1009.5 |
| 20260830181439 | 69 | 212 | 1.0 | 3.0 | 0.00 | 0.01 | 0.00 | 67 | 1009.4 |
| 20260830180438 | 70 | 211 | 1.0 | 2.0 | 0.00 | 0.01 | 0.00 | 67 | 1009.4 |
| 20260830175938 | 70 | 211 | 1.0 | 2.0 | 0.00 | 0.01 | 0.00 | 66 | 1009.4 |
| 20260830175646 | 70 | 211 | 1.0 | 2.0 | 0.00 | 0.01 | 0.00 | 66 | 1009.6 |
| 20260830175438 | 70 | 212 | 1.0 | 3.0 | 0.00 | 0.01 | 0.00 | 66 | 1009.5 |
| 20260830174938 | 70 | 212 | 1.0 | 3.0 | 0.00 | 0.01 | 0.00 | 65 | 1009.4 |
| 20260830174646 | 71 | 211 | 1.0 | 3.0 | 0.00 | 0.01 | 0.00 | 64 | 1009.6 |
| 20260830174438 | 71 | 214 | 2.0 | 3.0 | 0.00 | 0.02 | 0.00 | 64 | 1009.5 |
| 20260830173938 | 71 | 222 | 1.0 | 3.0 | 0.00 | 0.02 | 0.00 | 64 | 1009.5 |
| 20260830173438 | 71 | 226 | 1.0 | 6.0 | 0.00 | 0.02 | 0.00 | 62 | 1009.5 |
| 20260830172938 | 71 | 228 | 2.0 | 6.0 | 0.00 | 0.03 | 0.00 | 63 | 1009.6 |
| 20260830172646 | 71 | 194 | 2.0 | 5.0 | 0.00 | 0.01 | 0.00 | 62 | 1009.6 |
| 20260830171938 | 71 | 234 | 3.0 | 7.0 | 0.00 | 0.04 | 0.00 | 62 | 1009.7 |
| 20260830171646 | 72 | 222 | 3.0 | 7.0 | 0.00 | 0.01 | 0.00 | 61 | 1009.7 |
| 20260830171438 | 72 | 240 | 3.0 | 7.0 | 0.00 | 0.04 | 0.00 | 61 | 1009.6 |
| 20260830170938 | 72 | 232 | 2.0 | 7.0 | 0.00 | 0.06 | 0.00 | 62 | 1009.6 |
| 20260830170646 | 72 | 228 | 2.0 | 5.0 | 0.00 | 0.01 | 0.00 | 60 | 1009.7 |
| 20260830170438 | 72 | 202 | 2.0 | 5.0 | 0.00 | 0.08 | 0.00 | 60 | 1009.6 |
| 20260830165939 | 72 | 228 | 2.0 | 8.0 | 0.00 | 0.09 | 0.00 | 59 | 1009.5 |
| 20260830165646 | 72 | 197 | 3.0 | 8.0 | 0.00 | 0.11 | 0.00 | 60 | 1009.7 |
| 20260830165438 | 72 | 248 | 3.0 | 8.0 | 0.00 | 0.09 | 0.00 | 60 | 1009.6 |
| 20260830164938 | 72 | 249 | 3.0 | 6.0 | 0.00 | 0.11 | 0.00 | 59 | 1009.7 |
| 20260830164646 | 72 | 248 | 3.0 | 6.0 | 0.00 | 0.11 | 0.00 | 59 | 1009.8 |
| 20260830163938 | 73 | 227 | 3.0 | 11.0 | 0.00 | 0.13 | 0.00 | 59 | 1009.6 |
| 20260830163646 | 73 | 190 | 3.0 | 7.0 | 0.00 | 0.11 | 0.00 | 57 | 1009.8 |
| 20260830163438 | 73 | 235 | 3.0 | 8.0 | 0.00 | 0.13 | 0.00 | 57 | 1009.7 |
| 20260830162938 | 73 | 240 | 4.0 | 9.0 | 0.00 | 0.15 | 0.00 | 58 | 1009.8 |
| 20260830162646 | 73 | 255 | 4.0 | 8.0 | 0.00 | 0.11 | 0.00 | 58 | 1009.8 |
| 20260830162438 | 73 | 232 | 4.0 | 13.0 | 0.00 | 0.17 | 0.00 | 58 | 1009.7 |
| 20260830161938 | 73 | 235 | 4.0 | 13.0 | 0.00 | 0.17 | 0.00 | 57 | 1009.8 |
| 20260830161647 | 73 | 260 | 5.0 | 10.0 | 0.00 | 0.11 | 0.00 | 57 | 1009.8 |
| 20260830161438 | 73 | 240 | 5.0 | 12.0 | 0.00 | 0.17 | 0.00 | 57 | 1009.8 |
| 20260830160938 | 73 | 242 | 4.0 | 12.0 | 0.00 | 0.17 | 0.00 | 59 | 1009.8 |
| 20260830160646 | 73 | 189 | 4.0 | 8.0 | 0.00 | 0.11 | 0.00 | 57 | 1010.0 |
| 20260830160438 | 73 | 245 | 4.0 | 9.0 | 0.00 | 0.17 | 0.00 | 57 | 1009.9 |
| 20260830155938 | 73 | 242 | 4.0 | 11.0 | 0.00 | 0.17 | 0.00 | 59 | 1009.8 |
| 20260830155438 | 73 | 241 | 5.0 | 11.0 | 0.00 | 0.17 | 0.00 | 59 | 1009.7 |
| 20260830154938 | 73 | 245 | 4.0 | 10.0 | 0.00 | 0.17 | 0.00 | 58 | 1009.8 |
| 20260830154646 | 73 | 253 | 4.0 | 7.0 | 0.00 | 0.17 | 0.00 | 60 | 1009.9 |
| 20260830154438 | 73 | 244 | 4.0 | 10.0 | 0.00 | 0.17 | 0.00 | 60 | 1009.9 |
| 20260830153938 | 73 | 243 | 5.0 | 12.0 | 0.00 | 0.17 | 0.00 | 60 | 1010.0 |
| 20260830153646 | 73 | 249 | 6.0 | 12.0 | 0.00 | 0.17 | 0.00 | 59 | 1010.0 |
| 20260830153438 | 73 | 241 | 5.0 | 12.0 | 0.00 | 0.17 | 0.00 | 59 | 1009.9 |
| 20260830152938 | 73 | 242 | 4.0 | 11.0 | 0.00 | 0.17 | 0.00 | 61 | 1010.0 |
| 20260830152646 | 73 | 218 | 4.0 | 8.0 | 0.00 | 0.17 | 0.00 | 61 | 1010.0 |
| 20260830151938 | 73 | 238 | 5.0 | 12.0 | 0.00 | 0.17 | 0.00 | 61 | 1010.0 |
| 20260830151646 | 73 | 255 | 4.0 | 12.0 | 0.00 | 0.17 | 0.00 | 61 | 1010.1 |
| 20260830151438 | 73 | 227 | 5.0 | 12.0 | 0.00 | 0.17 | 0.00 | 61 | 1010.0 |
| 20260830150938 | 73 | 233 | 5.0 | 12.0 | 0.00 | 0.17 | 0.00 | 61 | 1010.0 |
| 20260830150646 | 73 | 237 | 4.0 | 11.0 | 0.00 | 0.17 | 0.00 | 62 | 1010.1 |
| 20260830150438 | 73 | 242 | 4.0 | 11.0 | 0.00 | 0.17 | 0.00 | 62 | 1010.1 |
| 20260830145938 | 73 | 245 | 4.0 | 7.0 | 0.00 | 0.17 | 0.00 | 63 | 1010.1 |
| 20260830145437 | 73 | 235 | 4.0 | 14.0 | 0.00 | 0.17 | 0.00 | 63 | 1010.1 |
| 20260830144437 | 73 | 241 | 4.0 | 11.0 | 0.00 | 0.17 | 0.00 | 63 | 1010.1 |
| 20260830143938 | 73 | 237 | 4.0 | 11.0 | 0.00 | 0.17 | 0.00 | 63 | 1010.1 |
| 20260830143438 | 73 | 243 | 4.0 | 14.0 | 0.00 | 0.17 | 0.00 | 64 | 1010.1 |
| 20260830142437 | 73 | 243 | 5.0 | 13.0 | 0.00 | 0.17 | 0.00 | 64 | 1010.1 |
| 20260830141938 | 73 | 245 | 5.0 | 11.0 | 0.00 | 0.17 | 0.00 | 64 | 1010.1 |
| 20260830141643 | 73 | 261 | 5.0 | 10.0 | 0.00 | 0.17 | 0.00 | 63 | 1010.1 |
| 20260830141438 | 73 | 239 | 5.0 | 12.0 | 0.00 | 0.17 | 0.00 | 65 | 1010.2 |
| 20260830140938 | 73 | 232 | 5.0 | 13.0 | 0.00 | 0.18 | 0.00 | 63 | 1010.0 |
| 20260830140644 | 73 | 203 | 5.0 | 12.0 | 0.00 | 0.17 | 0.00 | 63 | 1010.2 |
| 20260830140438 | 73 | 230 | 6.0 | 13.0 | 0.00 | 0.18 | 0.00 | 63 | 1010.1 |
| 20260830135643 | 73 | 232 | 6.0 | 13.0 | 0.00 | 0.18 | 0.00 | 64 | 1010.2 |
| 20260830134938 | 73 | 226 | 5.0 | 10.0 | 0.00 | 0.18 | 0.00 | 65 | 1010.1 |
| 20260830134643 | 73 | 184 | 4.0 | 9.0 | 0.00 | 0.18 | 0.00 | 65 | 1010.2 |
| 20260830133938 | 73 | 246 | 5.0 | 10.0 | 0.00 | 0.19 | 0.00 | 66 | 1010.1 |
| 20260830133643 | 72 | 227 | 5.0 | 8.0 | 0.00 | 0.18 | 0.00 | 67 | 1010.2 |
| 20260830133438 | 72 | 240 | 5.0 | 13.0 | 0.00 | 0.19 | 0.00 | 67 | 1010.1 |
| 20260830132938 | 72 | 241 | 6.0 | 13.0 | 0.00 | 0.19 | 0.00 | 67 | 1010.2 |
| 20260830132643 | 72 | 250 | 5.0 | 11.0 | 0.00 | 0.18 | 0.00 | 68 | 1010.3 |
| 20260830132438 | 72 | 245 | 4.0 | 11.0 | 0.00 | 0.19 | 0.00 | 68 | 1010.2 |
| 20260830131644 | 71 | 260 | 4.0 | 9.0 | 0.00 | 0.18 | 0.00 | 69 | 1010.3 |
| 20260830131437 | 71 | 246 | 5.0 | 12.0 | 0.00 | 0.19 | 0.00 | 69 | 1010.2 |
| 20260830130938 | 71 | 247 | 6.0 | 12.0 | 0.00 | 0.19 | 0.00 | 69 | 1010.2 |
| 20260830130644 | 71 | 211 | 6.0 | 11.0 | 0.00 | 0.18 | 0.00 | 69 | 1010.2 |
| 20260830130438 | 71 | 248 | 7.0 | 12.0 | 0.00 | 0.19 | 0.00 | 69 | 1010.2 |
| 20260830125938 | 70 | 250 | 6.0 | 12.0 | 0.00 | 0.19 | 0.00 | 70 | 1010.3 |
| 20260830125643 | 70 | 254 | 5.0 | 11.0 | 0.00 | 0.19 | 0.00 | 70 | 1010.4 |
| 20260830125438 | 70 | 252 | 6.0 | 15.0 | 0.00 | 0.19 | 0.00 | 70 | 1010.3 |
| 20260830124938 | 70 | 250 | 6.0 | 15.0 | 0.00 | 0.19 | 0.00 | 70 | 1010.4 |
| 20260830124643 | 70 | 253 | 6.0 | 14.0 | 0.00 | 0.19 | 0.00 | 70 | 1010.5 |
| 20260830124438 | 70 | 247 | 6.0 | 14.0 | 0.00 | 0.19 | 0.00 | 70 | 1010.4 |
| 20260830123938 | 70 | 249 | 6.0 | 13.0 | 0.00 | 0.19 | 0.00 | 69 | 1010.4 |
| 20260830123439 | 70 | 250 | 5.0 | 11.0 | 0.00 | 0.19 | 0.00 | 71 | 1010.4 |
| 20260830122938 | 70 | 241 | 4.0 | 11.0 | 0.00 | 0.19 | 0.00 | 71 | 1010.3 |
| 20260830122643 | 70 | 212 | 4.0 | 9.0 | 0.00 | 0.19 | 0.00 | 71 | 1010.4 |
| 20260830122438 | 70 | 244 | 5.0 | 17.0 | 0.00 | 0.19 | 0.00 | 71 | 1010.3 |
| 20260830121938 | 70 | 241 | 6.0 | 17.0 | 0.00 | 0.19 | 0.00 | 71 | 1010.4 |
| 20260830121643 | 70 | 206 | 5.0 | 10.0 | 0.00 | 0.19 | 0.00 | 71 | 1010.3 |
| 20260830121438 | 70 | 234 | 5.0 | 12.0 | 0.00 | 0.19 | 0.00 | 71 | 1010.2 |
| 20260830120938 | 70 | 240 | 5.0 | 11.0 | 0.00 | 0.19 | 0.00 | 70 | 1010.2 |
| 20260830120645 | 71 | 255 | 5.0 | 11.0 | 0.00 | 0.19 | 0.00 | 70 | 1010.3 |
| 20260830120438 | 71 | 245 | 6.0 | 16.0 | 0.00 | 0.19 | 0.00 | 70 | 1010.3 |
| 20260830115938 | 71 | 246 | 6.0 | 16.0 | 0.00 | 0.19 | 0.00 | 70 | 1010.1 |
| 20260830115644 | 71 | 241 | 6.0 | 16.0 | 0.00 | 0.19 | 0.00 | 70 | 1010.2 |
| 20260830115438 | 71 | 244 | 6.0 | 16.0 | 0.00 | 0.19 | 0.00 | 70 | 1010.2 |
| 20260830114938 | 70 | 241 | 5.0 | 12.0 | 0.00 | 0.19 | 0.00 | 72 | 1010.2 |
| 20260830114438 | 70 | 241 | 5.0 | 12.0 | 0.00 | 0.19 | 0.00 | 72 | 1010.1 |
| 20260830113643 | 69 | 255 | 5.0 | 11.0 | 0.00 | 0.19 | 0.00 | 74 | 1010.2 |
| 20260830112938 | 69 | 247 | 5.0 | 12.0 | 0.00 | 0.19 | 0.00 | 74 | 1010.1 |
| 20260830112644 | 68 | 213 | 5.0 | 12.0 | 0.00 | 0.19 | 0.00 | 75 | 1010.2 |
| 20260830112438 | 68 | 247 | 5.0 | 12.0 | 0.00 | 0.19 | 0.00 | 75 | 1010.1 |
| 20260830111938 | 68 | 250 | 6.0 | 11.0 | 0.00 | 0.19 | 0.00 | 79 | 1010.1 |
| 20260830111644 | 67 | 253 | 7.0 | 11.0 | 0.00 | 0.19 | 0.00 | 80 | 1010.2 |
| 20260830111437 | 67 | 254 | 6.0 | 11.0 | 0.00 | 0.19 | 0.00 | 80 | 1010.1 |
| 20260830110938 | 67 | 256 | 6.0 | 10.0 | 0.00 | 0.19 | 0.00 | 81 | 1010.1 |
| 20260830110644 | 67 | 256 | 6.0 | 10.0 | 0.00 | 0.19 | 0.00 | 80 | 1010.2 |
| 20260830110437 | 67 | 257 | 6.0 | 10.0 | 0.00 | 0.19 | 0.00 | 80 | 1010.1 |
| 20260830105938 | 67 | 255 | 7.0 | 15.0 | 0.00 | 0.19 | 0.00 | 79 | 1010.2 |
| 20260830105437 | 68 | 252 | 9.0 | 18.0 | 0.00 | 0.19 | 0.00 | 77 | 1010.1 |
| 20260830104938 | 68 | 251 | 9.0 | 18.0 | 0.00 | 0.19 | 0.00 | 76 | 1010.1 |
| 20260830104438 | 69 | 238 | 6.0 | 12.0 | 0.00 | 0.19 | 0.00 | 73 | 1010.0 |
| 20260830103938 | 69 | 243 | 6.0 | 17.0 | 0.00 | 0.19 | 0.00 | 72 | 1010.0 |
| 20260830103644 | 69 | 270 | 6.0 | 15.0 | 0.00 | 0.19 | 0.00 | 73 | 1010.0 |
| 20260830102938 | 69 | 233 | 6.0 | 19.0 | 0.00 | 0.19 | 0.00 | 74 | 1009.9 |
| 20260830102644 | 68 | 182 | 5.0 | 10.0 | 0.00 | 0.19 | 0.00 | 74 | 1009.9 |
| 20260830102438 | 68 | 238 | 5.0 | 14.0 | 0.00 | 0.19 | 0.00 | 74 | 1009.8 |
| 20260830101938 | 68 | 245 | 6.0 | 14.0 | 0.00 | 0.19 | 0.00 | 74 | 1009.7 |